Location: Clyde
(45.1830°S, 169.3170°E)
Time: 07:57:10
(UTC+12:00)

COSMOS 2428 - Pass Details

Date: 14 May 2021
Orbit: 844 x 859 km, 70.9° (Epoch: 20 June)

Event Time Altitude Azimuth Distance (km) Brightness Sun altitude
Rises 19:22:41 0° 306° (NW) 3,421 6.9 -20.7°
Reaches altitude 10° 19:25:23 10° 296° (WNW) 2,490 6.1 -21.2°
Maximum altitude 19:30:29 33° 233° (SW) 1,425 4.3 -22.1°
Drops below altitude 10° 19:35:38 10° 169° (S) 2,504 5.0 -23.0°
Enters shadow 19:36:23 - 166° (SSE) 2,754 5.2 -23.1°
